Tracking 18980 objects as of 22-Feb-2018
HD Live streaming from Space Station
objects crossing your sky now

OPS 9314 (IDSCS 4)

Track OPS 9314 (IDSCS 4) now!
OPS 9314 (IDSCS 4) is classified as:


NORAD ID: 2218
Int'l Code: 1966-053E
Perigee: 33,706.9 km
Apogee: 34,014.0 km
Inclination: 3.1 °
Period: 1,338.5 minutes
Semi major axis: 40231 km
RCS: 0.1 m2 (medium)
Launch date: June 16, 1966
Source: United States (US)
Launch site: AIR FORCE EASTERN TEST RANGE (AFETR)
aabbcc
Your satellite tracking list
Your tracking list is empty




NASA's NSSDC Master Catalog

Two Line Element Set (TLE):
1  2218U 66053E   18049.97160187 -.00000120 +00000-0 +00000-0 0  9998
2  2218 003.0946 059.1537 0038166 127.6519 007.3558 01.07585500202690
Source of the keplerian elements: AFSPC